Regional Weather Roundup
Issued by NWS New Orleans/Baton Rouge, LA

Home | Current Version | Previous Version | Graphics & Text | Print | Product List | Glossary On
Versions: 1 2 3 4 5 6 7 8 9 10 11 12 13 14 15 16 17 18 19 20 21 22 23 24 25 26 27 28 29 30 31 32 33 34 35 36 37 38 39 40 41 42 43 44 45 46 47 48 49 50
112
ASUS44 KLIX 261707
RWRLIX
NEW ORLEANS REGIONAL WEATHER ROUNDUP
NATIONAL WEATHER SERVICE NEW ORLEANS LA
1200 PM CDT THU MAR 26 2015

NOTE: "FAIR" INDICATES FEW OR NO CLOUDS BELOW 12,000 FEET WITH NO
      SIGNIFICANT WEATHER AND/OR OBSTRUCTIONS TO VISIBILITY.
      SKY/WX - SKY CONDITION AND SIGNIFICANT WEATHER.
      TMP - AIR TEMPERATURE.     DP    - DEWPOINT TEMPERATURE.
      RH  - RELATIVE HUMIDITY.   PRES  - PRESSURE.
      HI  - HEAT INDEX.          WCI   - WIND CHILL INDEX.

*  THESE STATIONS ARE NOT NWS OR FAA STATIONS AND ARE NOT UNDER
   NWS QUALITY CONTROL.

LAZ038-040-048-061>063-065>067-069-261800-
SOUTHEAST LOUISIANA

CITY           SKY/WX    TMP DP  RH WIND       PRES   REMARKS
N.O. AUDUBON   NOT AVBL
N.O. INTL ARPT LGT RAIN  69  65  86 SW13      29.92R
N.O. LAKEFRONT LGT RAIN  71  66  84 SW14      29.93R
SLIDELL        CLOUDY    69  68  96 SE6       29.90S
BATON ROUGE    CLOUDY    71  65  81 SE9       29.90S
BOOTHVILLE     LGT RAIN  68  66  93 SW13      29.95S
BELLE CHASSE   RAIN      69  64  84 SW9       29.92S FOG
BOGALUSA*        N/A     71  65  81 S7        29.92F
GALLIANO*      CLOUDY    66  64  95 MISG      29.94F
NEW ROADS*       N/A     73  64  74 CALM      29.90S
GONZALES*      CLOUDY    69  69  99 CALM      29.91F
HAMMOND*       CLOUDY    70  66  88 S3        29.93R
HOUMA*         LGT RAIN  66  64  94 CALM      29.94F FOG
PORT FOURCHON* MOSUNNY   68  64  88 CALM      29.97F

$$

MSZ070-080>082-261800-
SOUTHERN MISSISSIPPI

CITY           SKY/WX    TMP DP  RH WIND       PRES   REMARKS
MCCOMB         PTSUNNY   72  64  76 S5        29.90S
GULFPORT       RAIN      67  65  93 S7        29.92F FOG
BILOXI         RAIN      67  67 100 S6        29.90  FOG
PASCAGOULA     LGT RAIN  67  66  97 S7        29.92F
STENNIS ARPT*  TSTM      68  64  88 VRB5      29.93R

$$

COASTAL OBSERVATIONS
LAKE AND NEARSHORE STATIONS

STATION/POSITION TIME  TEMP    WIND        PRES    WAVE
                       AIR SEA DIR/SP/G            HT/PER
                 (UTC) (F)     (DEG/KT/KT) (MB)    (FT/S)
PASCAGOULA       1600   70     100/  7/ 12 1012.9
WAVELAND YACHT   1600   70 71  130/ 10/ 11 1012.6
GRAND ISLE       1600   69 71  260/  7/  9 1014.2
SOUTHWEST PASS   1600   62 51  240/ 11/ 12 1015.2
NEW CANAL        1600   70     210/  7/ 10 1013.2
SHELL BEACH      1600   69 72  220/ 11/ 14 1013.0

OFFSHORE STATIONS

STATION/POSITION TIME  TEMP    WIND        PRES    WAVE
                       AIR SEA DIR/SP/G            HT/PER
                 (UTC) (F)     (DEG/KT/KT) (MB)    (FT/S)
64 S DAUPHIN ISL 1650   69 71  330/ 10/ 12 1014.2    3/ 6

$$




USA.gov is the U.S. government's official web portal to all federal, state and local government web resources and services.